Weather History for KFKA - December, 2012

Change the Weather History Date:

Saturday, December 15, 2012

  Actual Average (KRST) Record (KRST)
Temperature  
Mean Temperature 38 °F 19 °F  
Max Temperature 40 °F 27 °F 52 °F (1913)
Min Temperature 36 °F 12 °F -30 °F (1919)
Degree Days  
Heating Degree Days 27 46  
Month to date heating degree days 645  
Since 1 July heating degree days 2317  
Cooling Degree Days 0 0  
Month to date cooling degree days 0  
Year to date cooling degree days 585  
Moisture  
Dew Point 38 °F    
Average Humidity 96    
Maximum Humidity 100    
Minimum Humidity 73    
Precipitation  
Precipitation 0.40 in 0.04 in 1.12 in (1940)
Month to date precipitation 0.69  
Year to date precipitation 32.48  
Snow  
Snow 0.00 in 0.50 in 4.20 in (1940)
Month to date snowfall 6.4  
Since 1 July snowfall 13.3  
Snow Depth -    
Sea Level Pressure  
Sea Level Pressure 29.59 in    
Wind  
Wind Speed 9 mph (SSE)    
Max Wind Speed 16 mph    
Max Gust Speed 22 mph    
Visibility 3 miles    
Events Fog , Rain    
T = Trace of Precipitation, MM = Missing Value Source: NWS Daily Summary

Daily Weather History Graph

Daily Weather History Graph

Search for Another Location

Airport or City:

Trip Planner

Search our weather history database for the weather conditions in past years. The results will help you decide how hot, cold, wet, or windy it might be!

Date:

Astronomy

Dec. 15, 2012 Rise Set
Actual Time 7:35 AM CST 4:32 PM CST
Civil Twilight 7:02 AM CST 5:05 PM CST
Nautical Twilight 6:26 AM CST 5:41 PM CST
Astronomical Twilight 5:51 AM CST 6:16 PM CST
Moon 9:25 AM CST (12/15) 7:41 PM CST (12/15)
Length of Visible Light 10h 02m
Length of Day
8h 56m
Waxing Crescent, 8% of the Moon is Illuminated
Dec 15
Waxing Crescent
Dec 19
First Quarter
Dec 28
Full
Jan 4
Last Quarter
Jan 11
New

Hourly Weather History & Observations

Time (CST) Temp. Windchill Dew Point Humidity Pressure Visibility Wind Dir Wind Speed Gust Speed Precip Events Conditions
12:10 AM 39.6 °F 32.5 °F 31.5 °F 73% 29.81 in 10.0 mi SE 11.5 mph - N/A   Overcast
12:29 AM 39.7 °F 33.2 °F 31.6 °F 73% 29.80 in 10.0 mi SE 10.4 mph - N/A   Overcast
12:50 AM 39.7 °F 33.2 °F 31.8 °F 73% 29.78 in 10.0 mi SE 10.4 mph - N/A   Overcast
1:10 AM 39.7 °F 32.3 °F 32.0 °F 74% 29.77 in 10.0 mi SE 12.7 mph - N/A   Overcast
1:30 AM 39.4 °F 30.7 °F 34.7 °F 83% 29.77 in 10.0 mi SSE 16.1 mph - N/A   Overcast
1:49 AM 38.7 °F 30.9 °F 35.6 °F 89% 29.78 in 10.0 mi SSE 12.7 mph 21.9 mph N/A   Overcast
2:10 AM 37.9 °F 30.5 °F 36.1 °F 93% 29.77 in 2.5 mi SE 11.5 mph - N/A   Overcast
2:29 AM 37.6 °F 31.0 °F 36.5 °F 96% 29.76 in 2.0 mi SE 9.2 mph 16.1 mph N/A   Overcast
2:50 AM 37.8 °F 30.7 °F 36.7 °F 96% 29.75 in 2.0 mi SE 10.4 mph 17.3 mph N/A   Overcast
3:10 AM 37.6 °F 30.5 °F 36.5 °F 96% 29.74 in 7.0 mi ESE 10.4 mph - N/A   Overcast
3:30 AM 37.4 °F 30.3 °F 36.1 °F 95% 29.73 in 7.0 mi SE 10.4 mph - N/A   Overcast
3:50 AM 37.4 °F 30.8 °F 35.6 °F 93% 29.72 in 7.0 mi SE 9.2 mph - N/A   Light Drizzle
4:10 AM 37.8 °F 31.3 °F 36.0 °F 93% 29.71 in 7.0 mi SE 9.2 mph - N/A Rain Light Rain
4:30 AM 37.8 °F 30.2 °F 36.1 °F 94% 29.69 in 5.0 mi SE 11.5 mph - 0.01 in Rain Light Rain
4:50 AM 38.1 °F 31.2 °F 36.7 °F 95% 29.67 in 5.0 mi SE 10.4 mph - 0.02 in Rain Light Rain
5:10 AM 38.1 °F 30.7 °F 36.9 °F 95% 29.66 in 3.0 mi ESE 11.5 mph - 0.03 in Rain Rain
5:30 AM 37.8 °F 30.2 °F 36.7 °F 96% 29.65 in 4.0 mi SE 11.5 mph - 0.06 in Rain Light Rain
5:50 AM 37.9 °F 29.6 °F 37.0 °F 97% 29.63 in 4.0 mi SE 13.8 mph - 0.09 in Rain Rain
6:10 AM 37.8 °F 30.7 °F 37.0 °F 97% 29.62 in 4.0 mi SE 10.4 mph 17.3 mph 0.02 in Rain Rain
6:30 AM 37.8 °F 31.3 °F 37.0 °F 97% 29.63 in 4.0 mi SE 9.2 mph - 0.05 in Rain Light Rain
6:50 AM 37.8 °F 29.8 °F 37.0 °F 97% 29.62 in 4.0 mi SE 12.7 mph 17.3 mph 0.07 in Rain Light Rain
7:10 AM 37.8 °F 30.7 °F 37.0 °F 97% 29.62 in 4.0 mi SE 10.4 mph - 0.03 in Rain Rain
7:30 AM 37.6 °F 30.0 °F 36.9 °F 97% 29.61 in 5.0 mi SE 11.5 mph - 0.06 in Rain Light Rain
7:50 AM 37.6 °F 30.0 °F 36.9 °F 97% 29.61 in 4.0 mi SE 11.5 mph 16.1 mph 0.09 in Rain Rain
8:10 AM 37.4 °F 30.3 °F 36.7 °F 97% 29.61 in 4.0 mi SE 10.4 mph 18.4 mph 0.02 in Rain Light Rain
8:30 AM 37.4 °F 30.3 °F 36.5 °F 97% 29.60 in 5.0 mi SE 10.4 mph 16.1 mph 0.03 in Rain Light Rain
8:49 AM 37.2 °F 29.6 °F 36.3 °F 97% 29.60 in 7.0 mi SE 11.5 mph 16.1 mph 0.05 in Rain Rain
9:10 AM 36.7 °F 29.4 °F 35.6 °F 96% 29.59 in 5.0 mi SE 10.4 mph - 0.01 in Rain Light Rain
9:30 AM 36.7 °F 29.4 °F 35.8 °F 97% 29.58 in 5.0 mi SE 10.4 mph - 0.03 in Rain Light Rain
9:50 AM 37.0 °F 30.4 °F 36.1 °F 97% 29.57 in 5.0 mi SE 9.2 mph - 0.04 in Rain Light Rain
10:10 AM 37.4 °F 30.8 °F 36.5 °F 97% 29.57 in 4.0 mi SE 9.2 mph - N/A   Overcast
10:30 AM 37.8 °F 31.8 °F 37.0 °F 97% 29.57 in 2.0 mi SE 8.1 mph - N/A   Overcast
10:50 AM 38.3 °F 31.9 °F 37.6 °F 97% 29.55 in 1.5 mi SE 9.2 mph - N/A   Overcast
11:10 AM 38.3 °F 31.9 °F 37.8 °F 98% 29.54 in 1.5 mi SE 9.2 mph - N/A   Overcast
11:30 AM 38.3 °F 32.5 °F 37.8 °F 98% 29.53 in 1.2 mi SE 8.1 mph - N/A   Overcast
11:50 AM 38.5 °F 32.1 °F 37.9 °F 98% 29.52 in 1.5 mi SE 9.2 mph - N/A   Overcast
12:10 PM 38.7 °F 32.9 °F 38.3 °F 99% 29.52 in 2.0 mi SSE 8.1 mph - N/A   Overcast
12:50 PM 39.2 °F 35.0 °F 38.7 °F 98% 29.50 in 1.5 mi SE 5.8 mph - N/A   Overcast
1:10 PM 39.2 °F 35.0 °F 38.8 °F 99% 29.50 in 1.2 mi SE 5.8 mph - N/A   Overcast
1:49 PM 39.4 °F 36.1 °F 39.2 °F 99% 29.49 in 1.0 mi SSE 4.6 mph - 0.01 in   Overcast
2:10 PM 39.6 °F 36.3 °F 39.2 °F 99% 29.49 in 0.8 mi SE 4.6 mph - 0.01 in   Light Drizzle
2:30 PM 39.6 °F 36.3 °F 39.4 °F 99% 29.49 in 0.8 mi SSE 4.6 mph - 0.02 in   Overcast
2:49 PM 39.7 °F 36.5 °F 39.6 °F 99% 29.48 in 0.2 mi SE 4.6 mph - 0.02 in Fog Fog
3:10 PM 39.7 °F 36.5 °F 39.6 °F 99% 29.48 in 0.2 mi SSE 4.6 mph - N/A Fog Fog
3:30 PM 40.1 °F 38.0 °F 39.7 °F 99% 29.49 in 0.2 mi SSE 3.5 mph - N/A Fog Fog
3:50 PM 40.1 °F 36.9 °F 39.7 °F 99% 29.50 in 0.2 mi SSE 4.6 mph - N/A Fog Fog
4:10 PM 39.9 °F 36.7 °F 39.6 °F 99% 29.50 in 0.2 mi South 4.6 mph - N/A Fog Fog
4:30 PM 39.7 °F 37.6 °F 39.6 °F 99% 29.50 in 0.2 mi South 3.5 mph - N/A Fog Fog
4:50 PM 39.9 °F 37.8 °F 39.6 °F 99% 29.50 in 0.5 mi SSE 3.5 mph - N/A Fog Fog
5:10 PM 39.7 °F 37.6 °F 39.6 °F 99% 29.50 in 0.5 mi SSE 3.5 mph - N/A Fog Fog
5:50 PM 39.7 °F - 39.6 °F 99% 29.50 in 0.2 mi Calm Calm - 0.01 in Fog Fog
6:10 PM 39.7 °F - 39.6 °F 99% 29.51 in 0.2 mi Calm Calm - N/A Fog Fog
6:30 PM 39.2 °F - 39.2 °F 100% 29.51 in 0.2 mi Calm Calm - N/A Fog Fog
6:50 PM 39.4 °F 36.1 °F 39.4 °F 100% 29.52 in 0.2 mi South 4.6 mph - N/A Fog Fog
7:09 PM 39.4 °F - 39.4 °F 100% 29.51 in 0.2 mi Calm Calm - N/A Fog Fog
7:50 PM 39.7 °F 35.6 °F 39.7 °F 100% 29.52 in 0.2 mi SSW 5.8 mph - N/A Fog Fog
8:10 PM 40.3 °F 38.2 °F 40.3 °F 100% 29.51 in 0.2 mi SW 3.5 mph - N/A Fog Fog
8:30 PM 40.3 °F 37.1 °F 40.3 °F 100% 29.51 in 0.5 mi WSW 4.6 mph - N/A Fog Fog
8:50 PM 40.5 °F 37.3 °F 40.5 °F 100% 29.51 in 0.5 mi SW 4.6 mph - N/A Fog Fog
9:10 PM 40.6 °F 38.6 °F 40.6 °F 100% 29.51 in 0.8 mi WSW 3.5 mph - N/A   Overcast
9:29 PM 40.3 °F 36.3 °F 40.3 °F 100% 29.51 in 1.2 mi West 5.8 mph - N/A   Overcast
9:49 PM 40.1 °F 36.1 °F 40.1 °F 100% 29.50 in 2.5 mi WNW 5.8 mph - N/A   Overcast
10:10 PM 39.7 °F 34.9 °F 39.7 °F 100% 29.50 in 1.5 mi WNW 6.9 mph - N/A   Overcast
10:29 PM 39.9 °F 33.9 °F 39.9 °F 100% 29.51 in 2.0 mi WNW 9.2 mph - N/A   Overcast
10:50 PM 39.4 °F 31.8 °F 39.4 °F 100% 29.51 in 5.0 mi NW 12.7 mph - N/A   Overcast
11:10 PM 37.9 °F 30.0 °F 37.9 °F 100% 29.52 in 10.0 mi WNW 12.7 mph - N/A   Overcast
11:30 PM 37.6 °F 30.5 °F 37.6 °F 100% 29.52 in 7.0 mi NW 10.4 mph - N/A   Overcast
11:50 PM 37.4 °F 29.3 °F 37.0 °F 99% 29.52 in 5.0 mi WNW 12.7 mph - N/A   Overcast